• Join FlightAware (Why Join?)
  • Login
  • US Flag 
07:14PM EST


 

Airport Tracker/Info


-or-


 

Live Flight TrackerFlight Track Log ✈ DKT1541 ✈ 03-May-2013 ✈ KATY - KFSD

Flight Track Log - Related Links

Times and Time Zones

All times are in EDT time to prevent confusion due to time zone crossing. See the DKT1541 flight status page for this flight to view local times or setup timezone preferences in your user account.

Time Position Orientation Groundspeed Altitude Reporting Facility
EDT Latitude Longitude Course Direction KTS MPH feet Rate Location/Type
09:04PM 44.8211 -97.1831 158° South 198 228 8,600  Level Minneapolis Center
09:05PM 44.7525 -97.1564 165° South 204 235 10,400 1,059 Climbing Minneapolis Center
09:06PM 44.6922 -97.1336 165° South 213 245 11,000 244 Climbing Minneapolis Center
09:07PM 44.6239 -97.1006 161° South 241 277 10,900 -48 Descending Minneapolis Center
09:08PM 44.5514 -97.0628 160° South 262 302 10,900  Level Minneapolis Center
09:09PM 44.4625 -97.0292 165° South 272 313 10,900  Level Minneapolis Center
09:10PM 44.3869 -97.0058 168° South 275 316 10,900  Level Minneapolis Center
09:11PM 44.3122 -96.9806 166° South 277 319 10,900  Level Minneapolis Center
09:12PM 44.2372 -96.9539 166° South 278 320 10,900 -145 Level Minneapolis Center
09:13PM 44.1636 -96.9261 165° South 278 320 10,600 -780 Descending Minneapolis Center
09:14PM 44.0919 -96.8997 165° South 274 315 9,300 -1,220 Descending Minneapolis Center
09:15PM 44.0083 -96.8722 167° South 267 307 8,100 -629 Descending Minneapolis Center
09:16PM 43.9406 -96.8614 173° South 257 296 8,000 -339 Descending Minneapolis Center
09:18PM 43.8814 -96.8208 154° Southeast 249 287 7,400 -871 Descending Minneapolis Center
09:19PM 43.8206 -96.7728 150° Southeast 252 290 6,200 -677 Descending Minneapolis Center
09:20PM 43.7600 -96.7283 152° Southeast 251 289 6,000 -145 Descending Minneapolis Center
09:21PM 43.6903 -96.6833 155° Southeast 242 278 5,900 49 Descending Minneapolis Center
09:22PM 43.6322 -96.6478 156° South 236 272 6,100  Climbing Minneapolis Center
09:23PM 43.5750 -96.6119 156° South 231 266 5,900 -387 Descending Minneapolis Center
09:24PM 43.5147 -96.6322 194° South 250 288 5,300 -387 Descending Minneapolis Center
09:25PM 43.4597 -96.6814 213° Southwest 244 281 5,100 -145 Descending Minneapolis Center
09:26PM 43.4089 -96.7275 213° Southwest 232 267 5,000 -290 Descending Minneapolis Center
09:27PM 43.3644 -96.7819 222° Southwest 222 255 4,500 -488 Descending Minneapolis Center
09:28PM 43.3856 -96.8508 293° West 207 238 4,000 -293 Descending Minneapolis Center
09:29PM 43.4258 -96.8783 334° Northwest 182 209 3,900 -242 Descending Minneapolis Center
09:30PM 43.4778 -96.8500 22° Northeast 171 197 3,500 -537 Descending Minneapolis Center
09:31PM 43.5169 -96.8094 37° Northeast 173 199 2,800 -683 Descending Minneapolis Center
09:32PM 43.5531 -96.7731 36° Northeast 169 194 2,100 -677 Descending Minneapolis Center